ASA419 KPDX-KSAN

Flight info

Callsign ASA419
Flight time 2h 8m
Altitude 37000
Route HRMNS6 HYJOE BORDY COLOM PASKE HUULK COMIX2
Aircraft B738/M-SDE2E3FGHIRWXY/LB1

Departure

Time 2026-04-21 23:35
Airport Portland International Airport (KPDX)

Arrival

Time 2026-04-22 01:43
Airport San Diego International Airport (KSAN)
Time Latitude Longitude Altitude Speed Heading
2026-04-21 23:25 45.58737 -122.59392 38 ft 0 kts 11°
2026-04-21 23:29 45.58723 -122.59397 38 ft 4 kts 18°
2026-04-21 23:29 45.58699 -122.59413 38 ft 4 kts 39°
2026-04-21 23:29 45.58684 -122.59441 38 ft 4 kts 72°
2026-04-21 23:29 45.58683 -122.59476 38 ft 4 kts 114°
2026-04-21 23:30 45.58686 -122.59486 38 ft 0 kts 123°
2026-04-21 23:31 45.58671 -122.59455 38 ft 11 kts 123°
2026-04-21 23:32 45.58607 -122.59333 38 ft 16 kts 129°
2026-04-21 23:32 45.58540 -122.59215 38 ft 15 kts 129°
2026-04-21 23:32 45.58469 -122.59091 38 ft 17 kts 129°
2026-04-21 23:32 45.58399 -122.58954 38 ft 19 kts 122°
2026-04-21 23:33 45.58334 -122.58795 38 ft 18 kts 119°
2026-04-21 23:33 45.58272 -122.58636 38 ft 19 kts 119°
2026-04-21 23:33 45.58205 -122.58466 38 ft 19 kts 119°
2026-04-21 23:33 45.58108 -122.58373 38 ft 18 kts 192°
2026-04-21 23:34 45.58104 -122.58529 38 ft 36 kts 300°
2026-04-21 23:34 45.58348 -122.59151 38 ft 106 kts 299°
2026-04-21 23:34 45.58808 -122.60334 51 ft 163 kts 299°
2026-04-21 23:34 45.59413 -122.61873 479 ft 187 kts 300°
2026-04-21 23:35 45.60054 -122.63486 1384 ft 185 kts 300°
2026-04-21 23:35 45.60671 -122.65057 2299 ft 180 kts 298°
2026-04-21 23:35 45.61281 -122.66632 3058 ft 181 kts 297°
2026-04-21 23:35 45.61887 -122.68165 3854 ft 178 kts 298°
2026-04-21 23:36 45.62608 -122.69686 4403 ft 194 kts 300°
2026-04-21 23:36 45.63392 -122.71387 4748 ft 216 kts 298°
2026-04-21 23:36 45.64211 -122.73324 5062 ft 238 kts 296°
2026-04-21 23:36 45.64773 -122.75557 5612 ft 243 kts 273°
2026-04-21 23:37 45.64560 -122.77947 6308 ft 245 kts 247°
2026-04-21 23:37 45.63631 -122.79984 7170 ft 248 kts 228°
2026-04-21 23:37 45.62215 -122.81377 8020 ft 254 kts 205°
2026-04-21 23:37 45.60432 -122.81763 8849 ft 267 kts 182°
2026-04-21 23:38 45.58569 -122.81204 9655 ft 280 kts 168°
2026-04-21 23:38 45.56751 -122.80068 10417 ft 289 kts 163°
2026-04-21 23:38 45.54897 -122.78830 11020 ft 301 kts 163°
2026-04-21 23:38 45.52935 -122.77516 11370 ft 321 kts 163°
2026-04-21 23:39 45.50855 -122.76126 11689 ft 340 kts 163°
2026-04-21 23:39 45.48649 -122.74649 12045 ft 357 kts 162°
2026-04-21 23:39 45.46372 -122.73130 12694 ft 362 kts 163°
2026-04-21 23:39 45.44076 -122.71596 13434 ft 366 kts 163°
2026-04-21 23:40 45.41773 -122.70055 14173 ft 369 kts 163°
2026-04-21 23:40 45.39471 -122.68522 14853 ft 372 kts 163°
2026-04-21 23:40 45.37117 -122.66960 15555 ft 375 kts 163°
2026-04-21 23:40 45.34740 -122.65381 16225 ft 378 kts 163°
2026-04-21 23:41 45.32345 -122.63791 16897 ft 381 kts 163°
2026-04-21 23:41 45.29934 -122.62191 17511 ft 385 kts 164°
2026-04-21 23:41 45.27504 -122.60578 18152 ft 387 kts 164°
2026-04-21 23:41 45.25052 -122.58930 18715 ft 392 kts 163°
2026-04-21 23:42 45.22573 -122.57256 19269 ft 396 kts 163°
2026-04-21 23:42 45.20071 -122.55581 19821 ft 400 kts 163°
2026-04-21 23:42 45.17540 -122.53898 20362 ft 403 kts 164°
2026-04-21 23:42 45.14984 -122.52207 20867 ft 408 kts 164°
2026-04-21 23:43 45.12399 -122.50502 21381 ft 411 kts 164°
2026-04-21 23:43 45.09797 -122.48787 21850 ft 415 kts 164°
2026-04-21 23:43 45.07166 -122.47057 22334 ft 418 kts 164°
2026-04-21 23:43 45.04518 -122.45318 22805 ft 421 kts 164°
2026-04-21 23:44 45.01850 -122.43566 23260 ft 424 kts 164°
2026-04-21 23:44 44.99192 -122.41821 23675 ft 428 kts 164°
2026-04-21 23:44 44.96479 -122.40041 24105 ft 431 kts 164°
2026-04-21 23:44 44.93728 -122.38374 24531 ft 429 kts 168°
2026-04-21 23:45 44.90916 -122.36952 24948 ft 429 kts 170°
2026-04-21 23:45 44.85205 -122.34383 25746 ft 433 kts 171°
2026-04-21 23:45 44.82322 -122.33084 26122 ft 436 kts 171°
2026-04-21 23:46 44.79430 -122.31766 26486 ft 439 kts 171°
2026-04-21 23:46 44.76514 -122.30429 26842 ft 441 kts 171°
2026-04-21 23:46 44.73587 -122.29082 27194 ft 443 kts 170°
2026-04-21 23:46 44.70682 -122.27742 27550 ft 445 kts 170°
2026-04-21 23:47 44.67730 -122.26379 27866 ft 448 kts 170°
2026-04-21 23:47 44.64763 -122.25010 28170 ft 450 kts 170°
2026-04-21 23:47 44.61769 -122.23625 28473 ft 453 kts 169°
2026-04-21 23:47 44.58776 -122.22226 28764 ft 455 kts 169°
2026-04-21 23:48 44.55762 -122.20823 29043 ft 457 kts 169°
2026-04-21 23:48 44.52734 -122.19420 29353 ft 459 kts 169°
2026-04-21 23:48 44.49694 -122.18016 29622 ft 461 kts 169°
2026-04-21 23:48 44.46641 -122.16608 29895 ft 462 kts 169°
2026-04-21 23:49 44.43587 -122.15201 30271 ft 461 kts 169°
2026-04-21 23:49 44.40548 -122.13804 30683 ft 460 kts 169°
2026-04-21 23:49 44.37505 -122.12406 31021 ft 460 kts 169°
2026-04-21 23:49 44.34476 -122.11017 31437 ft 457 kts 169°
2026-04-21 23:50 44.31456 -122.09633 31798 ft 457 kts 169°
2026-04-21 23:50 44.28436 -122.08251 32154 ft 456 kts 169°
2026-04-21 23:50 44.25427 -122.06875 32504 ft 455 kts 169°
2026-04-21 23:50 44.22419 -122.05501 32838 ft 454 kts 169°
2026-04-21 23:51 44.19416 -122.04131 33205 ft 453 kts 169°
2026-04-21 23:51 44.16432 -122.02770 33589 ft 451 kts 169°
2026-04-21 23:51 44.13452 -122.01399 33890 ft 451 kts 169°
2026-04-21 23:51 44.10510 -122.00055 34202 ft 450 kts 169°
2026-04-21 23:52 44.07531 -121.98702 34542 ft 449 kts 169°
2026-04-21 23:52 44.04562 -121.97357 34822 ft 449 kts 169°
2026-04-21 23:52 44.01584 -121.96010 35098 ft 449 kts 169°
2026-04-21 23:52 43.98613 -121.94668 35414 ft 448 kts 169°
2026-04-21 23:53 43.95651 -121.93331 35710 ft 447 kts 169°
2026-04-21 23:53 43.92690 -121.91996 36001 ft 447 kts 169°
2026-04-21 23:53 43.89736 -121.90664 36232 ft 447 kts 169°
2026-04-21 23:53 43.86781 -121.89335 36523 ft 446 kts 169°
2026-04-21 23:54 43.83806 -121.88179 36804 ft 441 kts 173°
2026-04-21 23:54 43.80824 -121.87249 37068 ft 439 kts 175°
2026-04-21 23:54 43.77826 -121.86421 37260 ft 439 kts 176°
2026-04-21 23:55 43.71822 -121.84757 37284 ft 447 kts 175°
2026-04-21 23:55 43.65692 -121.83021 37286 ft 451 kts 175°
2026-04-21 23:56 43.59544 -121.81266 37286 ft 450 kts 175°
2026-04-21 23:56 43.53407 -121.79510 37290 ft 450 kts 175°
2026-04-21 23:57 43.47276 -121.77736 37300 ft 450 kts 175°
2026-04-21 23:57 43.41141 -121.75968 37305 ft 451 kts 175°
2026-04-21 23:58 43.34992 -121.74203 37309 ft 451 kts 175°
2026-04-21 23:58 43.28889 -121.72457 37313 ft 451 kts 175°
2026-04-21 23:59 43.22739 -121.70702 37323 ft 451 kts 175°
2026-04-21 23:59 43.16592 -121.68951 37333 ft 451 kts 174°
2026-04-22 00:00 43.10437 -121.67203 37340 ft 452 kts 174°
2026-04-22 00:00 43.04261 -121.65452 37346 ft 452 kts 174°
2026-04-22 00:01 42.98083 -121.63703 37351 ft 453 kts 174°
2026-04-22 00:01 42.91936 -121.61968 37355 ft 454 kts 174°
2026-04-22 00:02 42.85751 -121.60225 37360 ft 454 kts 174°
2026-04-22 00:02 42.79566 -121.58486 37364 ft 454 kts 174°
2026-04-22 00:03 42.73379 -121.56749 37368 ft 454 kts 174°
2026-04-22 00:03 42.67193 -121.55017 37371 ft 454 kts 174°
2026-04-22 00:04 42.61003 -121.53287 37374 ft 454 kts 174°
2026-04-22 00:04 42.54807 -121.51559 37380 ft 454 kts 174°
2026-04-22 00:05 42.48610 -121.49834 37381 ft 455 kts 174°
2026-04-22 00:05 42.42398 -121.48108 37382 ft 455 kts 174°
2026-04-22 00:06 42.36235 -121.46399 37380 ft 455 kts 174°
2026-04-22 00:06 42.30024 -121.44681 37381 ft 455 kts 174°
2026-04-22 00:07 42.23813 -121.42966 37381 ft 455 kts 174°
2026-04-22 00:07 42.17606 -121.41255 37381 ft 455 kts 174°
2026-04-22 00:08 42.11395 -121.39548 37385 ft 455 kts 174°
2026-04-22 00:08 42.05186 -121.37844 37387 ft 455 kts 174°
2026-04-22 00:09 41.98976 -121.36142 37389 ft 455 kts 174°
2026-04-22 00:09 41.92789 -121.34451 37391 ft 452 kts 174°
2026-04-22 00:10 41.86627 -121.32769 37393 ft 451 kts 174°
2026-04-22 00:10 41.80505 -121.31102 37396 ft 451 kts 174°
2026-04-22 00:11 41.74350 -121.29429 37398 ft 451 kts 174°
2026-04-22 00:11 41.68193 -121.27759 37401 ft 451 kts 174°
2026-04-22 00:12 41.62044 -121.26095 37402 ft 450 kts 174°
2026-04-22 00:12 41.56945 -121.24717 37404 ft 449 kts 175°
2026-04-22 00:13 41.49837 -121.22799 37406 ft 448 kts 175°
2026-04-22 00:13 41.44727 -121.21424 37405 ft 447 kts 175°
2026-04-22 00:14 41.38621 -121.19783 37405 ft 447 kts 175°
2026-04-22 00:14 41.32562 -121.18157 37407 ft 447 kts 175°
2026-04-22 00:15 41.26484 -121.16520 37398 ft 445 kts 175°
2026-04-22 00:15 41.20406 -121.14896 37394 ft 445 kts 175°
2026-04-22 00:16 41.14322 -121.13277 37391 ft 445 kts 175°
2026-04-22 00:16 41.08264 -121.11667 37387 ft 444 kts 175°
2026-04-22 00:17 41.02212 -121.10062 37379 ft 443 kts 175°
2026-04-22 00:17 40.96157 -121.08954 37373 ft 436 kts 182°
2026-04-22 00:18 40.90158 -121.08376 37368 ft 435 kts 182°
2026-04-22 00:18 40.84122 -121.07767 37363 ft 434 kts 182°
2026-04-22 00:19 40.78101 -121.07141 37359 ft 434 kts 182°
2026-04-22 00:19 40.72076 -121.06507 37367 ft 434 kts 182°
2026-04-22 00:20 40.66057 -121.05871 37364 ft 434 kts 182°
2026-04-22 00:20 40.60043 -121.05228 37360 ft 433 kts 182°
2026-04-22 00:21 40.54045 -121.04590 37355 ft 432 kts 182°
2026-04-22 00:21 40.48041 -121.03954 37337 ft 432 kts 182°
2026-04-22 00:22 40.42053 -121.03320 37319 ft 431 kts 182°
2026-04-22 00:22 40.36068 -121.02689 37310 ft 431 kts 182°
2026-04-22 00:23 40.30092 -121.02060 37309 ft 431 kts 182°
2026-04-22 00:23 40.24111 -121.01431 37309 ft 431 kts 182°
2026-04-22 00:24 40.18175 -121.00808 37310 ft 431 kts 182°
2026-04-22 00:24 40.12188 -121.00181 37312 ft 431 kts 182°
2026-04-22 00:25 40.06208 -120.99555 37313 ft 431 kts 182°
2026-04-22 00:25 40.00233 -120.98932 37315 ft 431 kts 182°
2026-04-22 00:26 39.94280 -120.98311 37317 ft 427 kts 182°
2026-04-22 00:26 39.88362 -120.97696 37321 ft 427 kts 182°
2026-04-22 00:27 39.82443 -120.97081 37326 ft 426 kts 182°
2026-04-22 00:27 39.76575 -120.96473 37327 ft 426 kts 182°
2026-04-22 00:28 39.70662 -120.95861 37326 ft 426 kts 182°
2026-04-22 00:28 39.64747 -120.95250 37335 ft 426 kts 182°
2026-04-22 00:29 39.58838 -120.94641 37346 ft 427 kts 182°
2026-04-22 00:29 39.52915 -120.94031 37358 ft 427 kts 182°
2026-04-22 00:30 39.46993 -120.93422 37367 ft 426 kts 182°
2026-04-22 00:30 39.41080 -120.92816 37376 ft 426 kts 182°
2026-04-22 00:31 39.35171 -120.92210 37387 ft 426 kts 182°
2026-04-22 00:31 39.29262 -120.91606 37399 ft 426 kts 182°
2026-04-22 00:32 39.23345 -120.91002 37404 ft 426 kts 182°
2026-04-22 00:32 39.17430 -120.90399 37398 ft 427 kts 182°
2026-04-22 00:33 39.11507 -120.89793 37389 ft 426 kts 182°
2026-04-22 00:33 39.05601 -120.89193 37375 ft 426 kts 182°
2026-04-22 00:34 38.99693 -120.88595 37362 ft 426 kts 182°
2026-04-22 00:34 38.93792 -120.87999 37350 ft 425 kts 182°
2026-04-22 00:35 38.87929 -120.87390 37332 ft 427 kts 180°
2026-04-22 00:35 38.82092 -120.85425 37310 ft 442 kts 165°
2026-04-22 00:36 38.76552 -120.81845 37296 ft 448 kts 158°
2026-04-22 00:36 38.71112 -120.77913 37286 ft 449 kts 158°
2026-04-22 00:37 38.65664 -120.74010 37280 ft 449 kts 158°
2026-04-22 00:37 38.60208 -120.70122 37276 ft 449 kts 158°
2026-04-22 00:38 38.54746 -120.66243 37314 ft 448 kts 158°
2026-04-22 00:38 38.49307 -120.62348 37358 ft 448 kts 158°
2026-04-22 00:39 38.43869 -120.58471 37378 ft 448 kts 158°
2026-04-22 00:39 38.38432 -120.54613 37375 ft 447 kts 158°
2026-04-22 00:40 38.32991 -120.50764 37367 ft 447 kts 158°
2026-04-22 00:40 38.27561 -120.46930 37366 ft 446 kts 158°
2026-04-22 00:41 38.22120 -120.43096 37356 ft 446 kts 158°
2026-04-22 00:41 38.16726 -120.39303 37344 ft 446 kts 158°
2026-04-22 00:42 38.11291 -120.35487 37310 ft 446 kts 158°
2026-04-22 00:42 38.05852 -120.31675 37289 ft 446 kts 158°
2026-04-22 00:43 38.00409 -120.27867 37275 ft 446 kts 158°
2026-04-22 00:43 37.94972 -120.24069 37265 ft 446 kts 158°
2026-04-22 00:44 37.89538 -120.20280 37257 ft 446 kts 158°
2026-04-22 00:44 37.84101 -120.16496 37247 ft 446 kts 158°
2026-04-22 00:45 37.78662 -120.12716 37239 ft 446 kts 158°
2026-04-22 00:45 37.73227 -120.08946 37243 ft 446 kts 158°
2026-04-22 00:46 37.67787 -120.05178 37243 ft 446 kts 158°
2026-04-22 00:46 37.62378 -120.01438 37237 ft 445 kts 158°
2026-04-22 00:47 37.56941 -119.97685 37222 ft 446 kts 158°
2026-04-22 00:47 37.51495 -119.93932 37210 ft 446 kts 158°
2026-04-22 00:48 37.46043 -119.90182 37206 ft 447 kts 158°
2026-04-22 00:48 37.40587 -119.86435 37206 ft 446 kts 158°
2026-04-22 00:49 37.35140 -119.82700 37209 ft 446 kts 158°
2026-04-22 00:49 37.29683 -119.78965 37212 ft 446 kts 157°
2026-04-22 00:50 37.24235 -119.75242 37211 ft 446 kts 157°
2026-04-22 00:50 37.18782 -119.71521 37210 ft 446 kts 157°
2026-04-22 00:51 37.13329 -119.67807 37215 ft 446 kts 157°
2026-04-22 00:51 37.07876 -119.64100 37212 ft 446 kts 157°
2026-04-22 00:52 37.02413 -119.60391 37210 ft 446 kts 157°
2026-04-22 00:52 36.96957 -119.56693 37207 ft 446 kts 157°
2026-04-22 00:53 36.91522 -119.53016 37206 ft 446 kts 156°
2026-04-22 00:53 36.86069 -119.49332 37205 ft 446 kts 156°
2026-04-22 00:54 36.80608 -119.45649 37205 ft 446 kts 156°
2026-04-22 00:54 36.75149 -119.41973 37206 ft 445 kts 156°
2026-04-22 00:55 36.69689 -119.38302 37207 ft 445 kts 156°
2026-04-22 00:55 36.61506 -119.32813 37209 ft 445 kts 156°
2026-04-22 00:56 36.56079 -119.29179 37208 ft 445 kts 156°
2026-04-22 00:56 36.50620 -119.25530 37207 ft 445 kts 156°
2026-04-22 00:57 36.45155 -119.21882 37206 ft 445 kts 156°
2026-04-22 00:57 36.39704 -119.18235 37205 ft 445 kts 156°
2026-04-22 00:58 36.35161 -119.15205 37206 ft 445 kts 156°
2026-04-22 00:58 36.28817 -119.10995 37208 ft 445 kts 156°
2026-04-22 00:59 36.24239 -119.07965 37210 ft 446 kts 156°
2026-04-22 00:59 36.18758 -119.04341 37210 ft 446 kts 156°
2026-04-22 01:00 36.13197 -119.01149 37211 ft 441 kts 164°
2026-04-22 01:00 36.07320 -118.99155 37211 ft 437 kts 171°
2026-04-22 01:01 36.01377 -118.97581 37211 ft 437 kts 172°
2026-04-22 01:01 35.95437 -118.96010 37212 ft 437 kts 171°
2026-04-22 01:02 35.89499 -118.94437 37213 ft 437 kts 171°
2026-04-22 01:02 35.83549 -118.92860 37214 ft 437 kts 171°
2026-04-22 01:03 35.77602 -118.91279 37216 ft 437 kts 171°
2026-04-22 01:03 35.71636 -118.89691 37216 ft 437 kts 171°
2026-04-22 01:04 35.65690 -118.88114 37215 ft 437 kts 171°
2026-04-22 01:04 35.59776 -118.86551 37214 ft 437 kts 171°
2026-04-22 01:05 35.53829 -118.84981 37212 ft 438 kts 171°
2026-04-22 01:05 35.47876 -118.83413 37212 ft 437 kts 171°
2026-04-22 01:06 35.41926 -118.81848 37213 ft 437 kts 170°
2026-04-22 01:06 35.35985 -118.80288 37216 ft 437 kts 170°
2026-04-22 01:07 35.30036 -118.78728 37223 ft 437 kts 170°
2026-04-22 01:07 35.24083 -118.77169 37232 ft 437 kts 170°
2026-04-22 01:08 35.18131 -118.75613 37245 ft 437 kts 170°
2026-04-22 01:08 35.12182 -118.74059 37261 ft 437 kts 170°
2026-04-22 01:09 35.06232 -118.72508 37280 ft 437 kts 170°
2026-04-22 01:09 35.00282 -118.70960 37301 ft 437 kts 170°
2026-04-22 01:10 34.94337 -118.69414 37322 ft 437 kts 170°
2026-04-22 01:10 34.88425 -118.67874 37339 ft 437 kts 170°
2026-04-22 01:11 34.82475 -118.66329 37351 ft 436 kts 170°
2026-04-22 01:11 34.76528 -118.64792 37362 ft 437 kts 169°
2026-04-22 01:12 34.70567 -118.63254 37361 ft 437 kts 169°
2026-04-22 01:12 34.64628 -118.61724 37349 ft 436 kts 169°
2026-04-22 01:13 34.58795 -118.59602 37327 ft 440 kts 159°
2026-04-22 01:13 34.53339 -118.56217 37300 ft 442 kts 152°
2026-04-22 01:14 34.48039 -118.52439 37269 ft 441 kts 152°
2026-04-22 01:14 34.42744 -118.48669 37239 ft 442 kts 152°
2026-04-22 01:15 34.37458 -118.44916 36821 ft 443 kts 152°
2026-04-22 01:15 34.34811 -118.43040 36401 ft 437 kts 152°
2026-04-22 01:15 34.32199 -118.41189 35913 ft 433 kts 152°
2026-04-22 01:16 34.29608 -118.39354 35430 ft 430 kts 152°
2026-04-22 01:16 34.27049 -118.37525 34957 ft 426 kts 152°
2026-04-22 01:16 34.24506 -118.35714 34488 ft 422 kts 152°
2026-04-22 01:16 34.21984 -118.33924 34024 ft 418 kts 152°
2026-04-22 01:17 34.19487 -118.32155 33567 ft 415 kts 152°
2026-04-22 01:17 34.17011 -118.30403 33115 ft 411 kts 152°
2026-04-22 01:17 34.14554 -118.28667 32668 ft 408 kts 152°
2026-04-22 01:17 34.12113 -118.26938 32226 ft 405 kts 151°
2026-04-22 01:18 34.09700 -118.25224 31792 ft 401 kts 152°
2026-04-22 01:18 34.07295 -118.23524 31359 ft 398 kts 152°
2026-04-22 01:18 34.04906 -118.21840 30930 ft 396 kts 152°
2026-04-22 01:18 34.02539 -118.20176 30509 ft 393 kts 152°
2026-04-22 01:19 34.00181 -118.18520 30091 ft 390 kts 152°
2026-04-22 01:19 33.97840 -118.16877 29677 ft 388 kts 152°
2026-04-22 01:19 33.95513 -118.15246 29266 ft 385 kts 152°
2026-04-22 01:19 33.93199 -118.13624 28847 ft 383 kts 152°
2026-04-22 01:20 33.91293 -118.12289 28501 ft 381 kts 152°
2026-04-22 01:20 33.88997 -118.10681 28084 ft 379 kts 152°
2026-04-22 01:20 33.86689 -118.09066 27663 ft 377 kts 152°
2026-04-22 01:20 33.84430 -118.07482 27247 ft 375 kts 151°
2026-04-22 01:21 33.82167 -118.05946 26832 ft 373 kts 153°
2026-04-22 01:21 33.79923 -118.04468 26421 ft 371 kts 153°
2026-04-22 01:21 33.77660 -118.02977 26004 ft 370 kts 153°
2026-04-22 01:21 33.75401 -118.01487 25587 ft 368 kts 153°
2026-04-22 01:22 33.73161 -118.00009 25176 ft 367 kts 153°
2026-04-22 01:22 33.70924 -117.98534 24768 ft 365 kts 152°
2026-04-22 01:22 33.68698 -117.97066 24365 ft 364 kts 152°
2026-04-22 01:22 33.66481 -117.95605 23963 ft 362 kts 152°
2026-04-22 01:23 33.64276 -117.94152 23564 ft 361 kts 152°
2026-04-22 01:23 33.62080 -117.92706 23167 ft 359 kts 152°
2026-04-22 01:23 33.59894 -117.91267 22768 ft 357 kts 152°
2026-04-22 01:23 33.57718 -117.89835 22369 ft 356 kts 152°
2026-04-22 01:24 33.55582 -117.88429 21978 ft 354 kts 152°
2026-04-22 01:24 33.53433 -117.86997 21584 ft 352 kts 151°
2026-04-22 01:24 33.51308 -117.85538 21193 ft 350 kts 150°
2026-04-22 01:24 33.49194 -117.84094 20807 ft 348 kts 150°
2026-04-22 01:25 33.47094 -117.82665 20423 ft 346 kts 150°
2026-04-22 01:25 33.45017 -117.81226 20039 ft 344 kts 148°
2026-04-22 01:25 33.43069 -117.79571 19659 ft 342 kts 141°
2026-04-22 01:25 33.41272 -117.77719 19282 ft 340 kts 138°
2026-04-22 01:26 33.39540 -117.75801 18904 ft 338 kts 137°
2026-04-22 01:26 33.37809 -117.73909 18527 ft 336 kts 138°
2026-04-22 01:26 33.36078 -117.72040 18153 ft 334 kts 138°
2026-04-22 01:26 33.34355 -117.70194 17783 ft 332 kts 138°
2026-04-22 01:27 33.32663 -117.68387 17417 ft 329 kts 138°
2026-04-22 01:27 33.30958 -117.66569 17047 ft 327 kts 138°
2026-04-22 01:27 33.29257 -117.64757 16678 ft 325 kts 138°
2026-04-22 01:27 33.27571 -117.62963 16312 ft 324 kts 138°
2026-04-22 01:28 33.25895 -117.61180 15948 ft 322 kts 138°
2026-04-22 01:28 33.24228 -117.59405 15586 ft 320 kts 138°
2026-04-22 01:28 33.22562 -117.57650 15226 ft 319 kts 138°
2026-04-22 01:28 33.20902 -117.55903 14866 ft 317 kts 138°
2026-04-22 01:29 33.19252 -117.54168 14507 ft 315 kts 138°
2026-04-22 01:29 33.17606 -117.52439 14149 ft 314 kts 138°
2026-04-22 01:29 33.15967 -117.50718 13792 ft 312 kts 138°
2026-04-22 01:29 33.14341 -117.49009 13438 ft 311 kts 138°
2026-04-22 01:30 33.12665 -117.47384 13086 ft 310 kts 143°
2026-04-22 01:30 33.10900 -117.45918 12732 ft 309 kts 146°
2026-04-22 01:30 33.09116 -117.44492 12369 ft 308 kts 145°
2026-04-22 01:30 33.07379 -117.43063 12006 ft 307 kts 145°
2026-04-22 01:31 33.05629 -117.41616 11640 ft 306 kts 145°
2026-04-22 01:31 33.03886 -117.40159 11286 ft 305 kts 144°
2026-04-22 01:31 33.02168 -117.38713 11192 ft 300 kts 144°
2026-04-22 01:31 33.00478 -117.37295 11111 ft 295 kts 144°
2026-04-22 01:32 32.98792 -117.35881 10773 ft 298 kts 144°
2026-04-22 01:32 32.97112 -117.34475 10179 ft 293 kts 144°
2026-04-22 01:32 32.95466 -117.33097 9781 ft 283 kts 144°
2026-04-22 01:32 32.93908 -117.31795 9639 ft 264 kts 144°
2026-04-22 01:33 32.92415 -117.30544 9239 ft 263 kts 144°
2026-04-22 01:33 32.90899 -117.29276 8641 ft 269 kts 144°
2026-04-22 01:33 32.89363 -117.27997 8158 ft 269 kts 144°
2026-04-22 01:33 32.87830 -117.26723 7723 ft 268 kts 144°
2026-04-22 01:34 32.86305 -117.25458 7286 ft 266 kts 144°
2026-04-22 01:34 32.84797 -117.24207 7112 ft 263 kts 144°
2026-04-22 01:34 32.83297 -117.22963 7049 ft 263 kts 144°
2026-04-22 01:34 32.81902 -117.21638 6978 ft 256 kts 131°
2026-04-22 01:35 32.80962 -117.19905 6969 ft 246 kts 114°
2026-04-22 01:35 32.80358 -117.18042 6841 ft 239 kts 106°
2026-04-22 01:35 32.79961 -117.16131 6607 ft 238 kts 101°
2026-04-22 01:35 32.79588 -117.14215 6369 ft 237 kts 102°
2026-04-22 01:36 32.79186 -117.12318 6111 ft 236 kts 103°
2026-04-22 01:36 32.78771 -117.10434 6010 ft 236 kts 103°
2026-04-22 01:36 32.78353 -117.08552 6009 ft 235 kts 103°
2026-04-22 01:36 32.77939 -117.06675 6010 ft 234 kts 103°
2026-04-22 01:37 32.77522 -117.04799 5975 ft 236 kts 104°
2026-04-22 01:37 32.77062 -117.02940 5875 ft 232 kts 105°
2026-04-22 01:37 32.76603 -117.01101 5575 ft 233 kts 105°
2026-04-22 01:37 32.76133 -116.99254 5296 ft 234 kts 107°
2026-04-22 01:38 32.75468 -116.97488 5166 ft 234 kts 118°
2026-04-22 01:38 32.74429 -116.96063 4913 ft 225 kts 140°
2026-04-22 01:38 32.73029 -116.95306 4619 ft 224 kts 167°
2026-04-22 01:38 32.71474 -116.95320 4294 ft 225 kts 192°
2026-04-22 01:39 32.70092 -116.96124 4020 ft 220 kts 217°
2026-04-22 01:39 32.69128 -116.97484 3734 ft 214 kts 243°
2026-04-22 01:39 32.68702 -116.99155 3421 ft 211 kts 262°
2026-04-22 01:39 32.68702 -117.00872 3109 ft 207 kts 278°
2026-04-22 01:40 32.69044 -117.02512 2798 ft 200 kts 290°
2026-04-22 01:40 32.69596 -117.03987 2474 ft 193 kts 296°
2026-04-22 01:40 32.70067 -117.05446 2151 ft 189 kts 289°
2026-04-22 01:40 32.70430 -117.06895 1992 ft 177 kts 287°
2026-04-22 01:41 32.70760 -117.08260 1942 ft 169 kts 287°
2026-04-22 01:41 32.71083 -117.09594 1798 ft 167 kts 287°
2026-04-22 01:41 32.71399 -117.10895 1559 ft 156 kts 286°
2026-04-22 01:41 32.71687 -117.12086 1286 ft 149 kts 286°
2026-04-22 01:42 32.71969 -117.13245 1040 ft 144 kts 286°
2026-04-22 01:42 32.72242 -117.14371 815 ft 141 kts 286°
2026-04-22 01:42 32.72513 -117.15489 598 ft 141 kts 286°
2026-04-22 01:42 32.72693 -117.16233 450 ft 141 kts 286°
2026-04-22 01:43 32.72970 -117.17360 187 ft 140 kts 286°
2026-04-22 01:43 32.73223 -117.18433 32 ft 131 kts 285°
2026-04-22 01:43 32.73446 -117.19341 23 ft 85 kts 288°
2026-04-22 01:43 32.73539 -117.19734 23 ft 12 kts 258°
2026-04-22 01:44 32.73518 -117.19813 23 ft 6 kts 249°
2026-04-22 01:44 32.73507 -117.19847 23 ft 2 kts 248°
2026-04-22 01:44 32.73506 -117.19849 23 ft 0 kts 248°
2026-04-22 01:44 32.73494 -117.19869 23 ft 4 kts 214°
2026-04-22 01:45 32.73486 -117.19876 23 ft 0 kts 217°
2026-04-22 01:45 32.73481 -117.19880 23 ft 6 kts 218°
2026-04-22 01:45 32.73434 -117.19941 23 ft 9 kts 232°
2026-04-22 01:46 32.73384 -117.19974 23 ft 3 kts 183°
2026-04-22 01:46 32.73373 -117.19972 23 ft 6 kts 163°
2026-04-22 01:46 32.73347 -117.19933 23 ft 6 kts 116°
2026-04-22 01:46 32.73337 -117.19908 23 ft 0 kts 117°